Theta_e
315 313 315 315 314 310 306 302 302 301 300 299 299 299 299 300 300 301 306 307 312 314 317 318 319 320 320 321 324 324 322 321 320 320 321 322 323 325 323 323 324 326 326
313 311 312 311 309 306 303 302 301 300 300 299 298 298 298 299 300 301 305 308 310 313 313 316 317 319 321 317 318 316 320 318 315 317 317 317 318 319 321 320 321 320 319
310 308 309 307 305 302 301 300 299 299 298 298 297 297 298 298 299 299 302 305 311 311 314 316 318 317 317 315 314 319 318 313 312 315 315 314 315 316 316 317 317 317 317
308 307 306 304 302 300 299 299 298 297 298 297 297 296 297 298 298 299 300 305 307 307 305 306 307 309 310 311 318 316 313 313 316 314 312 312 314 315 316 316 315 315 315
307 305 305 303 300 299 298 298 297 297 297 296 296 296 297 297 296 297 299 299 297 299 300 301 300 302 303 308 310 311 311 312 310 310 311 312 311 311 311 312 313 314 315
306 304 303 302 299 298 297 297 296 296 297 296 292 294 296 297 296 296 296 295 295 295 296 296 299 301 303 306 308 310 311 310 310 308 307 307 307 308 309 310 311 312 312
305 304 303 301 298 297 297 297 296 295 294 295 295 293 293 294 294 295 295 295 293 294 294 295 296 299 302 304 308 310 308 306 305 304 304 304 305 305 306 307 308 309 310
305 303 302 300 298 297 297 296 296 294 295 295 295 295 291 291 293 293 294 292 292 293 292 293 294 295 299 304 301 301 301 301 301 301 301 301 302 303 304 305 305 306 307
304 302 301 300 298 298 297 297 296 295 294 293 295 297 291 293 291 292 292 292 291 292 292 292 292 293 297 300 295 295 294 295 297 298 299 300 301 301 302 303 304 305 305
303 302 301 300 299 298 297 297 296 297 297 293 292 292 293 295 293 288 291 291 291 290 291 291 292 292 296 297 291 290 290 292 292 293 295 296 297 299 300 301 302 303 304
301 300 300 299 298 297 298 297 295 296 296 297 294 292 292 292 292 294 289 288 290 291 290 291 292 292 294 294 291 288 288 289 290 291 292 293 294 296 298 299 300 301 302
298 299 298 298 297 297 296 296 295 295 295 296 296 294 293 291 291 291 291 290 289 288 289 290 290 292 292 291 287 284 285 287 288 289 290 290 292 293 295 296 298 299 300
296 296 297 296 296 296 296 296 294 294 294 294 295 294 295 295 294 293 293 289 287 287 287 290 290 291 290 290 288 283 282 284 286 288 288 289 290 291 292 294 296 296 297
297 297 295 295 295 295 295 294 293 293 293 293 294 295 293 294 293 292 291 289 285 285 286 287 289 290 289 288 285 282 285 282 284 286 287 288 289 290 291 292 293 294 295
296 296 295 294 294 294 293 293 292 291 292 292 293 293 292 292 292 292 291 293 292 285 284 286 285 289 288 287 285 284 284 282 284 284 285 286 287 289 290 291 291 292 294
294 293 294 293 293 293 292 291 291 291 291 291 291 291 291 291 290 290 290 290 291 292 288 288 286 287 287 285 284 283 283 280 283 283 284 285 287 288 288 289 290 291 292
292 292 292 291 291 291 291 290 290 290 289 289 288 289 289 290 289 288 289 288 287 289 290 284 286 286 285 284 281 282 283 283 284 282 283 285 287 287 287 287 288 289 290
291 290 290 289 289 290 290 289 289 288 288 287 287 287 288 286 288 288 287 287 286 286 287 282 282 281 281 282 282 281 281 281 283 283 283 285 286 286 286 286 287 288 288
289 290 288 288 288 288 288 288 287 288 287 286 287 285 285 285 285 286 285 285 285 282 285 285 280 281 280 280 279 280 281 282 282 282 283 284 284 284 285 286 286 286 286
288 287 288 287 287 287 286 286 285 286 286 285 286 285 284 283 284 284 283 284 284 284 283 281 281 278 278 279 280 280 279 282 282 282 282 282 283 283 284 284 284 284 284
286 287 286 286 285 285 285 285 284 285 284 284 284 284 284 284 285 285 283 283 283 283 282 281 279 278 277 277 277 280 280 281 282 282 282 283 283 283 283 283 282 283 283
285 286 285 285 284 284 286 288 286 284 284 283 283 284 283 283 284 287 287 286 284 282 280 280 279 277 278 278 279 279 278 278 280 283 281 281 282 281 281 282 283 283 283
283 283 284 284 284 285 287 287 287 285 283 283 283 282 281 281 282 283 286 286 284 285 284 282 280 279 278 279 280 278 278 278 279 280 280 277 280 279 281 280 282 282 283
281 281 282 283 284 284 286 287 287 286 284 284 284 283 282 281 281 281 282 282 282 281 282 280 281 281 281 281 280 280 280 280 280 278 278 273 280 278 281 281 282 282 282
280 281 282 282 283 283 286 286 286 285 284 284 283 283 283 281 282 284 281 281 280 280 283 282 281 282 282 283 281 280 277 275 274 275 276 274 276 276 277 278 280 281 281
277 279 280 282 282 283 284 285 285 285 284 284 283 282 283 282 284 283 282 281 279 278 278 278 278 281 282 281 281 280 278 274 274 273 276 273 275 274 274 277 278 279 278
Wind_Speed
11 10 10 9 8 8 7 7 6 5 4 4 3 3 3 3 3 2 2 5 7 2 5 6 7 7 8 9 11 12 13 13 14 10 12 14 15 12 11 12 13 15 15
11 11 10 10 9 8 6 6 6 5 5 4 4 3 2 2 3 3 2 3 7 5 4 6 7 8 11 8 9 8 11 13 11 9 13 13 12 12 13 12 14 14 14
15 14 11 10 9 8 9 6 6 5 5 4 4 3 2 3 3 4 4 3 6 14 10 8 10 10 8 8 4 12 13 9 7 8 12 11 9 9 9 9 12 12 13
16 14 11 11 10 9 8 8 8 6 5 5 5 4 4 4 4 5 5 5 4 4 8 9 8 7 5 5 9 9 9 8 12 10 9 8 8 9 10 12 10 11 12
17 14 11 11 12 10 9 9 8 8 7 6 4 4 3 4 4 4 6 6 6 4 4 7 8 6 3 5 5 7 8 9 8 8 9 11 10 9 9 9 10 12 13
18 14 11 12 12 10 10 9 10 7 7 7 5 4 4 3 3 4 5 5 5 5 4 3 2 5 6 5 6 7 9 9 10 10 8 9 9 9 9 9 10 11 12
19 16 11 13 12 12 12 13 10 12 6 8 7 5 4 4 5 5 5 4 4 4 3 2 2 2 4 6 8 10 9 8 8 8 8 8 8 9 9 10 11 11 12
18 15 15 13 15 11 14 14 13 9 5 10 6 5 5 4 4 5 4 4 5 4 3 3 4 4 4 5 10 11 10 7 7 7 7 8 8 9 9 9 9 10 10
15 17 17 13 14 12 12 14 14 14 9 9 9 3 4 5 7 6 6 6 5 4 3 4 5 5 6 8 7 8 8 7 7 8 9 10 10 10 10 10 11 11 11
15 16 15 15 15 12 13 12 11 12 10 10 6 6 3 1 5 5 6 7 6 5 4 3 5 5 7 6 8 8 7 8 8 8 9 9 9 9 10 10 10 11 11
16 16 16 16 14 11 13 15 15 14 11 10 9 6 5 3 2 2 5 7 7 6 4 4 5 5 7 6 4 5 8 7 6 7 8 8 8 9 9 10 10 11 11
11 15 15 14 14 13 14 13 14 16 13 10 9 9 8 7 8 5 3 7 8 7 7 6 6 6 6 5 4 2 6 5 4 5 5 6 6 7 8 9 10 12 12
8 14 16 16 13 14 13 12 13 14 15 12 12 9 7 7 4 7 5 5 4 4 5 6 7 7 6 5 3 4 3 6 5 6 5 5 5 5 6 8 10 11 13
9 12 14 15 16 15 14 14 11 11 12 13 15 12 9 8 8 7 6 7 5 4 5 6 8 7 7 6 4 0 3 4 6 6 5 6 6 6 6 8 9 10 11
8 11 13 15 16 15 15 14 12 14 13 14 14 12 9 8 8 7 6 7 6 8 10 10 7 11 9 7 6 4 5 4 8 6 6 5 6 6 8 9 8 10 11
10 10 12 14 15 15 15 16 13 13 14 11 11 14 12 9 9 8 7 6 5 6 6 6 10 10 12 8 8 8 7 6 10 8 8 8 8 8 6 7 9 10 11
10 10 11 12 14 14 15 16 17 16 17 16 14 14 15 13 10 9 9 8 7 7 6 4 7 9 14 12 8 8 7 7 5 10 10 10 11 9 8 7 8 10 11
9 10 11 11 12 14 15 17 18 15 17 17 16 16 16 9 14 12 9 12 9 9 6 9 9 9 8 11 9 9 7 6 6 7 11 12 12 10 8 10 11 13 12
12 11 10 13 13 13 15 16 18 18 17 18 18 18 17 15 15 11 11 10 9 7 8 6 6 7 5 9 9 9 8 8 7 9 10 12 12 10 10 12 13 13 13
13 11 11 12 12 13 15 15 16 18 18 17 17 18 18 19 20 16 13 12 10 10 9 8 7 7 8 8 8 8 9 8 6 6 7 9 10 11 15 16 15 13 11
11 11 12 12 13 13 11 14 15 17 17 17 18 18 19 19 23 21 14 14 14 11 10 9 8 7 9 7 11 7 7 4 4 4 4 4 5 6 6 12 13 13 10
12 10 11 12 13 10 18 22 20 15 17 18 19 18 18 19 24 27 27 25 20 17 14 11 11 11 12 10 9 8 5 3 2 3 3 5 5 8 7 8 15 14 14
12 13 12 11 13 13 22 23 25 17 16 18 19 18 16 14 20 21 29 28 26 28 23 16 16 14 11 11 11 10 8 6 4 4 2 9 7 9 7 9 17 16 15
13 13 13 13 13 12 22 25 23 19 18 20 20 20 20 20 21 21 20 19 19 19 20 12 12 10 8 11 10 8 9 7 4 4 4 5 5 7 7 8 18 16 14
14 14 13 15 16 15 20 22 22 16 18 21 19 20 20 21 27 33 22 22 20 16 22 22 15 15 15 19 13 8 7 8 5 4 7 5 5 6 9 9 9 11 12
15 13 15 15 18 18 22 24 20 13 17 15 17 18 25 24 28 35 22 20 20 18 17 15 12 15 16 15 19 12 9 8 6 3 7 6 4 3 4 6 7 6 8
Wind_Direction
188 185 190 187 186 180 181 178 166 158 141 132 130 134 126 107 113 121 104 353 341 143 130 128 122 113 109 87 82 82 84 80 67 70 65 45 42 53 58 51 47 47 38
189 189 187 190 185 187 178 175 168 165 162 152 140 137 115 109 115 130 124 94 6 352 116 125 135 137 101 108 82 91 98 79 67 58 67 53 36 46 46 57 52 44 33
190 188 187 187 185 182 174 169 168 168 163 156 146 147 141 138 145 145 145 144 113 42 39 71 76 83 80 83 116 105 87 73 86 88 73 59 50 49 51 48 51 37 30
191 191 187 187 179 177 179 178 174 171 172 173 167 168 162 152 141 141 144 138 109 99 64 54 66 73 68 109 76 91 87 87 76 75 69 62 62 52 43 44 32 24 22
193 190 189 186 176 179 184 181 178 178 175 171 159 144 137 143 145 139 133 123 110 117 111 70 53 29 51 70 97 103 97 87 83 76 67 56 46 38 31 27 24 21 22
193 194 191 183 180 180 182 183 177 180 179 157 138 120 118 142 168 154 141 128 115 121 128 140 129 67 46 80 102 104 94 85 66 54 49 46 41 35 27 23 21 20 14
191 192 191 186 186 186 184 183 174 169 160 159 135 123 118 158 186 168 164 150 140 139 120 131 138 136 100 119 106 87 81 75 63 50 42 37 35 30 26 19 12 5 5
196 194 189 186 187 185 187 186 178 173 163 182 178 152 172 174 183 187 174 162 143 152 145 142 134 142 155 115 77 69 54 49 45 44 35 32 23 21 16 10 4 359 356
207 198 197 189 187 188 189 188 188 180 171 190 210 203 164 204 155 179 196 184 172 175 169 156 153 149 158 116 107 84 43 41 38 30 24 19 14 10 7 1 358 358 355
221 215 208 200 191 190 193 191 188 191 184 179 193 226 258 119 185 166 202 201 201 203 192 178 166 163 163 145 104 75 43 35 22 18 17 11 7 4 2 357 355 355 354
217 219 216 209 204 200 198 189 187 193 195 184 188 166 197 197 242 186 160 182 207 206 195 198 183 178 178 166 146 69 36 23 15 8 3 359 358 356 354 352 351 351 351
206 213 218 217 212 210 203 198 195 198 196 200 197 191 178 172 188 179 161 165 188 183 184 187 192 189 181 176 112 62 21 9 358 345 348 352 347 345 347 349 352 351 349
218 216 206 205 210 213 214 209 203 203 202 201 199 202 208 207 180 193 179 141 165 156 181 192 185 183 181 185 143 351 17 342 325 321 325 326 325 338 341 346 351 350 346
233 224 215 213 211 209 209 204 207 214 210 209 206 204 198 200 191 187 172 154 161 171 179 163 185 190 184 187 116 244 268 281 290 308 308 313 321 325 335 341 344 341 337
256 241 221 215 214 208 210 208 211 208 209 210 216 210 207 197 197 192 189 179 169 179 199 186 173 190 186 179 182 228 255 239 268 273 266 282 287 293 313 326 332 329 327
251 231 229 227 224 215 207 211 213 213 210 214 213 207 208 201 195 195 193 194 204 190 187 160 201 177 183 190 180 214 224 239 246 251 259 270 272 289 308 313 312 315 314
262 248 236 227 219 218 219 213 221 213 210 209 207 211 210 199 200 196 194 190 191 200 183 166 178 175 183 193 198 208 225 228 226 226 247 260 264 277 284 288 297 303 315
280 255 247 234 227 221 219 220 222 220 212 213 209 208 212 198 206 197 196 192 186 188 189 169 181 180 197 202 204 215 217 228 229 224 241 254 261 267 283 294 297 297 304
297 281 260 248 239 229 226 226 223 221 222 213 208 209 206 195 201 196 197 194 183 163 189 183 154 179 181 190 204 215 223 223 219 226 241 252 253 265 271 281 284 289 302
301 284 263 256 248 241 233 228 229 230 222 220 219 211 207 202 200 193 194 196 182 173 177 184 176 179 191 179 203 201 207 213 206 196 225 237 267 279 285 286 288 296 305
321 306 286 259 249 240 239 233 225 229 230 224 219 212 211 209 210 199 190 191 181 181 176 180 191 188 191 179 201 185 216 213 212 209 233 232 281 286 285 293 288 284 296
320 313 287 276 263 250 245 242 234 227 227 225 224 223 218 207 203 199 202 200 193 182 186 185 189 203 200 197 181 178 179 206 212 154 188 262 274 274 267 265 273 282 289
315 308 299 287 276 271 262 250 241 231 230 229 226 221 215 213 206 200 201 198 199 201 197 190 193 196 193 193 173 175 180 195 186 118 226 281 235 243 239 248 256 263 267
309 307 301 291 279 268 264 262 250 241 233 233 228 226 218 212 207 203 195 197 196 196 198 196 207 188 185 174 180 177 171 193 242 260 217 256 258 245 254 260 270 264 257
303 300 294 291 283 277 269 262 260 247 240 239 237 228 222 218 209 203 196 197 194 195 198 193 194 179 169 171 167 151 170 165 219 239 191 236 252 260 271 258 254 236 242
291 290 286 279 276 275 268 262 253 250 245 238 235 234 227 219 211 203 203 199 198 189 175 174 182 178 175 180 177 174 173 183 193 214 197 205 227 225 259 231 238 257 267